Погода в Поморянах

Украина / Львовская область     49°38′36″N   24°56′17″E
В апреле 2022 года жителям России запретили посещать сайт meteo.paraplan.net по решению Генеральной прокуратуры. Аудитория сайта уменьшилась в 10 раз. Владельцы сайта не видят смысла в поддержке погодного сервера в таких условиях. Сайт будет закрыт в октябре.
темп.,
°C
ветер,
м/с
пор.,
м/с
влажн.,
%
обл.,
%
осадки,
мм/ч
давл.,
гПа
погр.,
м
4 октября, вт
вт400:00+7зсз81586100 0.1 1011820
03:00+6зсз81590100 0.1 1012789
06:00+6зсз8149398 0.0 1013737
09:00+7зсз71391100 0.1 1014834
12:00+9зсз81285100 0.1 10151192
15:00+9зсз81284100 0.2 10171089
18:00+9зсз71282100 0.3 1019903
21:00+9з7138595 0.4 1021644
5 октября, ср
ср500:00+8з61287100 0.0 1023442
03:00+8з5128692 0.1 1024491
06:00+6з4128886 0.0 1025314
09:00+7зюз41085100 0.0 1026288
12:00+11з476998 0.0 1026532
15:00+14зюз5658100 0.0 1025891
18:00+12юз3674100 0.0 1025122
21:00+10юз3776100 0.0 1025116
6 октября, чт
чт600:00+9юз4972100 0.0 1026158
03:00+8юз3676100 0.0 102691
06:00+8юз3577100 0.0 102568
09:00+10зюз3675100 0.0 1026122
12:00+15зюз476199 0.0 1026404
15:00+17з585642 0.0 1025742
18:00+15з4107184 0.0 1026256
21:00+12з31083100 0.0 1028195
7 октября, пт
пт700:00+11зсз3109059 0.0 1030207
03:00+11сз26949 0.0 1031153
06:00+9ссз22965 0.0 103125
09:00+10с12911 0.0 103181
12:00+15всв21624 0.0 1031674
15:00+16в22515 0.0 10281014
18:00+14вюв33665 0.0 102747
21:00+10юв34715 0.0 102755
8 октября, сб
сб800:00+9юв4107268 0.0 1026171
03:00+9ююв51271100 0.0 1024218
06:00+9ююв51172100 0.0 1023202
09:00+10ююв41075100 0.0 1022218
12:00+15ю5666100 0.0 1021352
15:00+17ю4463100 0.0 1019552
18:00+15ююз2276100 0.0 101922
21:00+12ююз2282100 0.0 101919